Weather History for Carbondale, IL

Change the Weather History Date:

Tuesday, March 5, 2013

  Actual Average Record
Temperature  
Mean Temperature 41 °F -  
Max Temperature 46 °F 53 °F 82 °F (1910)
Min Temperature 36 °F 31 °F -11 °F (1978)
Degree Days  
Heating Degree Days 24    
Moisture  
Dew Point 30 °F    
Average Humidity 68    
Maximum Humidity 86    
Minimum Humidity 49    
Precipitation  
Precipitation 0.11 in - - ()
Sea Level Pressure  
Sea Level Pressure 29.91 in    
Wind  
Wind Speed 10 mph (WNW)    
Max Wind Speed 25 mph    
Max Gust Speed 34 mph    
Visibility 8 miles    
Events Rain , Snow    
Averages and records for this station are not official NWS values.
T = Trace of Precipitation, MM = Missing Value Source: NWS Daily Summary

Daily Weather History Graph

Daily Weather History Graph

Search for Another Location

Airport:

Trip Planner

Search our weather history database for the weather conditions in past years. The results will help you decide how hot, cold, wet, or windy it might be!

Date:

Astronomy

Mar. 05, 2013 Rise Set
Actual Time 6:22 AM CST 5:54 PM CST
Civil Twilight 5:56 AM CST 6:21 PM CST
Nautical Twilight 5:25 AM CST 6:51 PM CST
Astronomical Twilight 4:55 AM CST 7:22 PM CST
Moon 1:29 AM CST (3/5) 11:38 AM CST (3/5)
Length of Visible Light 12h 24m
Length of Day
11h 32m
Last Quarter, 40% of the Moon is Illuminated
Mar 5
Last Quarter
Mar 11
New
Mar 19
First Quarter
Mar 27
Full
Apr 2
Last Quarter

Hourly Weather History & Observations

Time (CST) Temp. Windchill Dew Point Humidity Pressure Visibility Wind Dir Wind Speed Gust Speed Precip Events Conditions
1:52 AM 46.9 °F - 36.0 °F 66% 29.78 in 10.0 mi Calm Calm - N/A   Mostly Cloudy
2:52 AM 46.0 °F - 36.0 °F 68% 29.77 in 10.0 mi Calm Calm - N/A   Mostly Cloudy
3:52 AM 41.0 °F - 35.1 °F 79% 29.77 in 10.0 mi Calm Calm - N/A   Scattered Clouds
4:52 AM 37.0 °F 32.4 °F 33.1 °F 86% 29.80 in 10.0 mi WSW 5.8 mph - N/A   Partly Cloudy
5:52 AM 42.1 °F 39.2 °F 34.0 °F 73% 29.81 in 10.0 mi WNW 4.6 mph - N/A   Overcast
6:52 AM 41.0 °F 38.0 °F 34.0 °F 76% 29.79 in 10.0 mi NW 4.6 mph - N/A   Clear
7:52 AM 46.9 °F - 34.0 °F 61% 29.82 in 10.0 mi NW 8.1 mph - N/A   Overcast
8:17 AM 46.4 °F 40.7 °F 33.8 °F 62% 29.84 in 10.0 mi NW 12.7 mph - N/A   Overcast
8:52 AM 46.0 °F 39.0 °F 34.0 °F 63% 29.84 in 10.0 mi WNW 17.3 mph 25.3 mph 0.00 in Rain Light Rain
9:12 AM 44.6 °F 37.4 °F 33.8 °F 66% 29.85 in 7.0 mi WNW 16.1 mph 25.3 mph 0.00 in Rain Light Rain
9:52 AM 39.9 °F 31.4 °F 32.0 °F 73% 29.88 in 5.0 mi WNW 16.1 mph 24.2 mph 0.01 in Rain Light Rain
10:16 AM 39.2 °F 30.5 °F 30.2 °F 70% 29.89 in 1.8 mi WNW 16.1 mph 28.8 mph 0.02 in Rain Light Rain Showers
10:35 AM 37.4 °F 30.3 °F 30.2 °F 75% 29.87 in 1.0 mi NW 10.4 mph - 0.03 in Snow Light Snow
10:43 AM 37.4 °F 28.9 °F 30.2 °F 75% 29.88 in 0.8 mi WNW 13.8 mph 21.9 mph 0.04 in Snow Light Snow
10:52 AM 37.0 °F 28.5 °F 30.9 °F 79% 29.88 in 0.5 mi NW 13.8 mph 21.9 mph 0.05 in Snow Snow
11:52 AM 37.9 °F 30.0 °F 30.9 °F 76% 29.91 in 0.8 mi WNW 12.7 mph - 0.03 in Snow Light Snow
12:24 PM 37.4 °F 29.3 °F 30.2 °F 75% 29.91 in 2.0 mi WNW 12.7 mph 21.9 mph 0.02 in Snow Light Snow
12:29 PM 37.4 °F 27.8 °F 30.2 °F 75% 29.91 in 4.0 mi WNW 17.3 mph 25.3 mph 0.02 in Snow Light Snow
12:48 PM 39.2 °F 30.5 °F 30.2 °F 70% 29.90 in 10.0 mi WNW 16.1 mph 26.5 mph 0.02 in   Overcast
12:52 PM 39.0 °F 29.9 °F 30.9 °F 73% 29.91 in 10.0 mi WNW 17.3 mph 26.5 mph 0.02 in   Overcast
1:10 PM 39.2 °F 29.8 °F 30.2 °F 70% 29.91 in 8.0 mi WNW 18.4 mph 25.3 mph N/A   Overcast
1:34 PM 39.2 °F 30.2 °F 30.2 °F 70% 29.91 in 9.0 mi WNW 17.3 mph 33.4 mph N/A   Overcast
1:52 PM 39.9 °F 31.8 °F 30.0 °F 68% 29.92 in 10.0 mi NW 15.0 mph 26.5 mph N/A   Overcast
2:52 PM 39.9 °F 31.1 °F 28.0 °F 63% 29.95 in 10.0 mi WNW 17.3 mph 27.6 mph N/A   Overcast
3:52 PM 42.1 °F 34.5 °F 27.0 °F 55% 29.96 in 10.0 mi NW 15.0 mph 33.4 mph N/A   Mostly Cloudy
4:52 PM 39.0 °F 28.0 °F 21.0 °F 49% 30.01 in 10.0 mi WNW 25.3 mph 34.5 mph N/A   Overcast
5:52 PM 36.0 °F 26.7 °F 19.9 °F 52% 30.03 in 10.0 mi WNW 15.0 mph 31.1 mph N/A   Overcast
6:52 PM 36.0 °F 28.0 °F 21.9 °F 57% 30.05 in 10.0 mi WNW 11.5 mph 26.5 mph N/A   Overcast
7:52 PM 36.0 °F 26.3 °F 23.0 °F 59% 30.05 in 8.0 mi WNW 16.1 mph 24.2 mph 0.00 in Snow Light Snow
8:52 PM 36.0 °F 27.1 °F 25.0 °F 64% 30.06 in 10.0 mi WNW 13.8 mph 26.5 mph 0.00 in   Overcast
9:52 PM 36.0 °F 25.6 °F 24.1 °F 62% 30.08 in 10.0 mi NW 18.4 mph 24.2 mph N/A   Overcast
10:52 PM 37.0 °F 27.0 °F 24.1 °F 59% 30.08 in 10.0 mi WNW 18.4 mph 29.9 mph N/A   Overcast
11:52 PM 37.0 °F 25.6 °F 24.1 °F 59% 30.08 in 10.0 mi WNW 24.2 mph 33.4 mph N/A   Overcast